Time,TemperatureF,DewpointF,PressureIn,WindDirection,WindDirectionDegrees,WindSpeedMPH,WindSpeedGustMPH,Humidity,HourlyPrecipIn,Conditions,Clouds,dailyrainin,SoftwareType,DateUTC
2017-02-23 00:03:00,37.8,37.0,30.24,SW,233,0.0,0.0,97,0.00,,,0.00,meteobridge,2017-02-23 08:03:00,
2017-02-23 00:08:00,37.8,37.0,30.24,SW,233,0.0,0.0,97,0.00,,,0.00,meteobridge,2017-02-23 08:08:00,
2017-02-23 00:13:00,37.8,37.0,30.24,SW,233,0.0,0.0,97,0.00,,,0.00,meteobridge,2017-02-23 08:13:00,
2017-02-23 00:18:00,37.8,37.0,30.24,SW,233,0.0,0.0,97,0.00,,,0.00,meteobridge,2017-02-23 08:18:00,
2017-02-23 00:23:00,37.8,37.0,30.25,South,171,0.9,2.0,97,0.00,,,0.00,meteobridge,2017-02-23 08:23:00,
2017-02-23 00:28:00,37.8,37.0,30.25,SSE,166,0.9,3.0,97,0.00,,,0.00,meteobridge,2017-02-23 08:28:00,
2017-02-23 00:33:00,37.8,37.0,30.25,SSE,166,0.0,1.0,97,0.00,,,0.00,meteobridge,2017-02-23 08:33:00,
2017-02-23 00:38:00,37.8,37.0,30.25,SSE,166,0.9,1.0,97,0.00,,,0.00,meteobridge,2017-02-23 08:38:00,
2017-02-23 00:43:00,37.8,37.0,30.25,SSE,166,0.0,1.0,97,0.00,,,0.00,meteobridge,2017-02-23 08:43:00,
2017-02-23 00:48:00,37.8,37.0,30.25,SSE,166,0.0,1.0,97,0.00,,,0.00,meteobridge,2017-02-23 08:48:00,
2017-02-23 00:53:00,37.9,37.2,30.25,SSE,166,0.9,3.0,97,0.00,,,0.00,meteobridge,2017-02-23 08:53:00,
2017-02-23 00:58:00,37.9,37.2,30.25,SSE,166,0.9,1.0,97,0.00,,,0.00,meteobridge,2017-02-23 08:58:00,
2017-02-23 01:03:00,37.9,37.2,30.25,SSE,166,0.9,1.0,97,0.00,,,0.00,meteobridge,2017-02-23 09:03:00,
2017-02-23 01:08:00,37.9,37.2,30.25,SSE,166,0.0,0.0,97,0.00,,,0.00,meteobridge,2017-02-23 09:08:00,
2017-02-23 01:13:00,37.9,37.2,30.25,SSE,165,0.9,1.0,97,0.00,,,0.00,meteobridge,2017-02-23 09:13:00,
2017-02-23 01:18:00,37.9,37.2,30.25,SSE,165,0.0,0.0,97,0.00,,,0.00,meteobridge,2017-02-23 09:18:00,
2017-02-23 01:23:00,37.9,37.2,30.25,SSE,165,0.0,1.0,97,0.00,,,0.00,meteobridge,2017-02-23 09:23:00,
2017-02-23 01:28:00,37.9,37.2,30.25,SSE,165,0.9,1.0,97,0.00,,,0.00,meteobridge,2017-02-23 09:28:00,
2017-02-23 01:33:00,37.9,37.2,30.25,SSE,165,0.9,1.0,97,0.00,,,0.00,meteobridge,2017-02-23 09:33:00,
2017-02-23 01:38:00,37.9,37.2,30.25,SSE,165,0.0,2.0,97,0.00,,,0.00,meteobridge,2017-02-23 09:38:00,
2017-02-23 01:43:00,37.9,37.2,30.25,SSE,165,0.0,1.0,97,0.00,,,0.00,meteobridge,2017-02-23 09:43:00,
2017-02-23 01:48:00,37.9,37.2,30.25,SSE,165,0.0,0.0,97,0.00,,,0.00,meteobridge,2017-02-23 09:48:00,
2017-02-23 01:53:00,37.8,37.0,30.25,SSE,165,0.0,0.0,97,0.00,,,0.00,meteobridge,2017-02-23 09:53:00,
2017-02-23 01:58:00,37.8,37.0,30.25,SSE,165,0.0,0.0,97,0.00,,,0.00,meteobridge,2017-02-23 09:58:00,
2017-02-23 02:03:00,37.8,37.0,30.25,SSE,165,0.0,0.0,97,0.00,,,0.00,meteobridge,2017-02-23 10:03:00,
2017-02-23 02:09:00,37.8,37.0,30.25,SSE,165,0.0,1.0,97,0.00,,,0.00,meteobridge,2017-02-23 10:09:00,
2017-02-23 02:14:00,37.8,37.0,30.25,SSE,165,0.0,1.0,97,0.00,,,0.00,meteobridge,2017-02-23 10:14:00,
2017-02-23 02:19:00,37.8,37.0,30.25,SSE,165,0.0,1.0,97,0.00,,,0.00,meteobridge,2017-02-23 10:19:00,
2017-02-23 02:24:00,37.8,37.0,30.25,SSE,165,0.9,2.0,97,0.00,,,0.00,meteobridge,2017-02-23 10:24:00,
2017-02-23 02:29:00,37.8,37.0,30.25,SSE,165,0.9,1.0,97,0.00,,,0.00,meteobridge,2017-02-23 10:29:00,
2017-02-23 02:34:00,37.8,37.0,30.25,SSE,165,0.0,0.0,97,0.00,,,0.00,meteobridge,2017-02-23 10:34:00,
2017-02-23 02:39:00,37.8,37.0,30.25,SSE,165,0.0,0.0,97,0.00,,,0.00,meteobridge,2017-02-23 10:39:00,
2017-02-23 02:44:00,37.8,37.0,30.25,SSE,165,0.0,0.0,97,0.00,,,0.00,meteobridge,2017-02-23 10:44:00,
2017-02-23 02:49:00,37.8,37.0,30.24,SSE,165,0.9,1.0,97,0.00,,,0.00,meteobridge,2017-02-23 10:49:00,
2017-02-23 02:54:00,37.6,36.9,30.24,SSE,165,0.0,1.0,97,0.00,,,0.00,meteobridge,2017-02-23 10:54:00,
2017-02-23 02:59:00,37.6,36.9,30.24,SSE,165,0.0,0.0,97,0.00,,,0.00,meteobridge,2017-02-23 10:59:00,
2017-02-23 03:04:00,37.6,36.9,30.24,SSE,165,2.0,2.0,97,0.00,,,0.00,meteobridge,2017-02-23 11:04:00,
2017-02-23 03:09:00,37.6,36.9,30.25,SSE,166,0.9,1.0,97,0.00,,,0.00,meteobridge,2017-02-23 11:09:00,
2017-02-23 03:14:00,37.4,36.7,30.25,West,279,0.9,2.0,97,0.00,,,0.00,meteobridge,2017-02-23 11:14:00,
2017-02-23 03:19:00,37.4,36.7,30.25,West,279,0.0,1.0,97,0.00,,,0.00,meteobridge,2017-02-23 11:19:00,
2017-02-23 03:24:00,37.4,36.7,30.25,West,279,0.0,1.0,97,0.00,,,0.00,meteobridge,2017-02-23 11:24:00,
2017-02-23 03:29:00,37.4,36.7,30.25,West,279,0.0,0.0,97,0.00,,,0.00,meteobridge,2017-02-23 11:29:00,
2017-02-23 03:34:00,37.6,36.9,30.25,West,269,0.9,2.0,97,0.00,,,0.00,meteobridge,2017-02-23 11:34:00,
2017-02-23 03:39:00,37.6,37.0,30.25,WSW,247,2.0,2.0,98,0.00,,,0.00,meteobridge,2017-02-23 11:39:00,
2017-02-23 03:44:00,37.4,36.7,30.25,SSW,204,0.9,2.0,97,0.00,,,0.00,meteobridge,2017-02-23 11:44:00,
2017-02-23 03:49:00,37.2,36.5,30.25,SSW,204,0.0,0.0,97,0.00,,,0.00,meteobridge,2017-02-23 11:49:00,
2017-02-23 03:54:00,37.0,36.3,30.25,SSW,204,0.9,1.0,97,0.00,,,0.00,meteobridge,2017-02-23 11:54:00,
2017-02-23 03:59:00,37.0,36.3,30.25,SSW,204,0.0,0.0,97,0.00,,,0.00,meteobridge,2017-02-23 11:59:00,
2017-02-23 04:04:00,36.7,36.0,30.25,SSW,204,0.0,0.0,97,0.00,,,0.00,meteobridge,2017-02-23 12:04:00,
2017-02-23 04:09:00,36.7,36.0,30.25,SSW,204,0.0,0.0,97,0.00,,,0.00,meteobridge,2017-02-23 12:09:00,
2017-02-23 04:14:00,36.3,35.6,30.26,SSW,204,0.0,0.0,97,0.00,,,0.00,meteobridge,2017-02-23 12:14:00,
2017-02-23 04:19:00,36.3,35.6,30.26,SSW,204,0.9,1.0,97,0.00,,,0.00,meteobridge,2017-02-23 12:19:00,
2017-02-23 04:24:00,36.0,35.2,30.26,SW,214,0.9,3.0,97,0.00,,,0.00,meteobridge,2017-02-23 12:24:00,
2017-02-23 04:29:00,35.8,35.1,30.26,SW,214,0.0,1.0,97,0.00,,,0.00,meteobridge,2017-02-23 12:29:00,
2017-02-23 04:34:00,35.4,34.7,30.27,SW,214,0.9,2.0,97,0.00,,,0.00,meteobridge,2017-02-23 12:34:00,
2017-02-23 04:39:00,35.2,34.5,30.27,West,266,2.0,2.0,97,0.01,,,0.01,meteobridge,2017-02-23 12:39:00,
2017-02-23 04:45:00,35.4,34.9,30.27,WSW,252,0.9,3.0,98,0.01,,,0.01,meteobridge,2017-02-23 12:45:00,
2017-02-23 04:50:00,35.6,35.1,30.27,West,264,0.9,2.0,98,0.01,,,0.01,meteobridge,2017-02-23 12:50:00,
2017-02-23 04:55:00,35.6,35.1,30.27,West,264,2.0,2.0,98,0.01,,,0.01,meteobridge,2017-02-23 12:55:00,
2017-02-23 05:00:00,35.8,35.2,30.27,West,264,0.9,2.0,98,0.01,,,0.01,meteobridge,2017-02-23 13:00:00,
2017-02-23 05:05:00,35.8,35.2,30.27,West,264,0.0,1.0,98,0.01,,,0.01,meteobridge,2017-02-23 13:05:00,
2017-02-23 05:10:00,35.6,35.1,30.27,West,264,0.9,2.0,98,0.01,,,0.01,meteobridge,2017-02-23 13:10:00,
2017-02-23 05:15:00,35.6,35.1,30.27,WSW,243,0.9,2.0,98,0.01,,,0.01,meteobridge,2017-02-23 13:15:00,
2017-02-23 05:20:00,35.4,34.9,30.27,WSW,243,0.9,1.0,98,0.01,,,0.01,meteobridge,2017-02-23 13:20:00,
2017-02-23 05:25:00,35.4,34.9,30.27,WSW,243,0.9,2.0,98,0.01,,,0.01,meteobridge,2017-02-23 13:25:00,
2017-02-23 05:26:00,35.4,34.9,30.27,WSW,243,0.9,2.0,98,0.01,,,0.01,meteobridge,2017-02-23 13:26:00,
2017-02-23 05:31:00,35.2,34.7,30.27,WSW,243,0.9,2.0,98,0.01,,,0.01,meteobridge,2017-02-23 13:31:00,
2017-02-23 05:36:00,35.2,34.7,30.27,WSW,243,0.9,1.0,98,0.01,,,0.01,meteobridge,2017-02-23 13:36:00,
2017-02-23 05:41:00,35.2,34.7,30.27,WSW,243,0.0,1.0,98,0.00,,,0.01,meteobridge,2017-02-23 13:41:00,
2017-02-23 05:46:00,35.2,34.7,30.27,WSW,243,0.9,2.0,98,0.00,,,0.01,meteobridge,2017-02-23 13:46:00,
2017-02-23 05:51:00,35.2,34.7,30.27,WSW,243,0.0,1.0,98,0.00,,,0.01,meteobridge,2017-02-23 13:51:00,
2017-02-23 05:56:00,35.2,34.7,30.27,WSW,243,0.0,0.0,98,0.00,,,0.01,meteobridge,2017-02-23 13:56:00,
2017-02-23 06:01:00,35.4,34.9,30.27,WSW,243,0.0,2.0,98,0.00,,,0.01,meteobridge,2017-02-23 14:01:00,
2017-02-23 06:06:00,35.4,34.9,30.27,WSW,243,0.0,1.0,98,0.00,,,0.01,meteobridge,2017-02-23 14:06:00,
2017-02-23 06:11:00,35.4,34.9,30.27,WSW,243,0.0,0.0,98,0.00,,,0.01,meteobridge,2017-02-23 14:11:00,
2017-02-23 06:16:00,35.4,34.9,30.27,WSW,243,0.9,1.0,98,0.00,,,0.01,meteobridge,2017-02-23 14:16:00,
2017-02-23 06:21:00,35.4,34.9,30.27,WSW,243,0.0,0.0,98,0.00,,,0.01,meteobridge,2017-02-23 14:21:00,
2017-02-23 06:26:00,35.4,34.9,30.27,South,175,2.9,3.0,98,0.00,,,0.01,meteobridge,2017-02-23 14:26:00,
2017-02-23 06:31:00,35.6,35.1,30.27,South,183,0.9,5.0,98,0.00,,,0.01,meteobridge,2017-02-23 14:31:00,
2017-02-23 06:32:00,35.8,35.2,30.27,SSE,162,4.9,5.0,98,0.00,,,0.01,meteobridge,2017-02-23 14:32:00,
2017-02-23 06:37:00,35.8,35.2,30.27,South,186,0.9,1.0,98,0.00,,,0.01,meteobridge,2017-02-23 14:37:00,
2017-02-23 06:42:00,35.8,35.2,30.27,SW,219,2.0,3.0,98,0.00,,,0.01,meteobridge,2017-02-23 14:42:00,
2017-02-23 06:47:00,35.8,35.6,30.27,SW,234,0.9,3.0,99,0.00,,,0.01,meteobridge,2017-02-23 14:47:00,
2017-02-23 06:52:00,35.8,35.2,30.27,SW,214,2.0,3.0,98,0.00,,,0.01,meteobridge,2017-02-23 14:52:00,
2017-02-23 06:57:00,35.8,35.2,30.28,SW,236,2.0,3.0,98,0.00,,,0.01,meteobridge,2017-02-23 14:57:00,
2017-02-23 07:02:00,35.8,35.2,30.28,WSW,246,2.9,3.0,98,0.00,,,0.01,meteobridge,2017-02-23 15:02:00,
2017-02-23 07:07:00,35.8,35.2,30.28,WSW,237,2.9,5.0,98,0.00,,,0.01,meteobridge,2017-02-23 15:07:00,
2017-02-23 07:12:00,35.8,35.2,30.29,SW,222,2.0,2.0,98,0.00,,,0.01,meteobridge,2017-02-23 15:12:00,
2017-02-23 07:17:00,35.8,35.2,30.29,SW,223,0.0,1.0,98,0.00,,,0.01,meteobridge,2017-02-23 15:17:00,
2017-02-23 07:22:00,35.8,35.2,30.29,SW,224,0.0,1.0,98,0.00,,,0.01,meteobridge,2017-02-23 15:22:00,
2017-02-23 07:27:00,35.8,35.6,30.29,West,267,2.0,4.0,99,0.00,,,0.01,meteobridge,2017-02-23 15:27:00,
2017-02-23 07:32:00,35.8,35.6,30.29,WNW,289,2.0,4.0,99,0.00,,,0.01,meteobridge,2017-02-23 15:32:00,
2017-02-23 07:37:00,36.0,35.8,30.29,WNW,302,2.0,4.0,99,0.00,,,0.01,meteobridge,2017-02-23 15:37:00,
2017-02-23 07:43:00,36.0,35.8,30.29,NW,304,2.0,3.0,99,0.00,,,0.01,meteobridge,2017-02-23 15:43:00,
2017-02-23 07:48:00,35.8,35.2,30.29,West,270,2.0,3.0,98,0.00,,,0.01,meteobridge,2017-02-23 15:48:00,
2017-02-23 07:53:00,35.8,35.2,30.29,WNW,286,2.0,3.0,98,0.00,,,0.01,meteobridge,2017-02-23 15:53:00,
2017-02-23 07:58:00,35.8,35.2,30.29,WNW,286,2.0,2.0,98,0.00,,,0.01,meteobridge,2017-02-23 15:58:00,
2017-02-23 08:03:00,35.8,35.6,30.29,West,260,0.9,3.0,99,0.00,,,0.01,meteobridge,2017-02-23 16:03:00,
2017-02-23 08:08:00,35.8,35.6,30.29,West,264,0.9,2.0,99,0.00,,,0.01,meteobridge,2017-02-23 16:08:00,
2017-02-23 08:13:00,35.8,35.6,30.30,West,276,0.0,1.0,99,0.00,,,0.01,meteobridge,2017-02-23 16:13:00,
2017-02-23 08:18:00,35.8,35.6,30.30,West,279,0.0,2.0,99,0.00,,,0.01,meteobridge,2017-02-23 16:18:00,
2017-02-23 08:23:00,36.0,35.8,30.30,West,279,0.0,0.0,99,0.00,,,0.01,meteobridge,2017-02-23 16:23:00,
2017-02-23 08:28:00,36.0,35.8,30.30,SW,230,0.0,2.0,99,0.00,,,0.01,meteobridge,2017-02-23 16:28:00,
2017-02-23 08:33:00,36.0,35.8,30.30,SW,230,0.0,0.0,99,0.00,,,0.01,meteobridge,2017-02-23 16:33:00,
2017-02-23 08:38:00,36.0,35.8,30.30,SW,230,0.0,1.0,99,0.00,,,0.01,meteobridge,2017-02-23 16:38:00,
2017-02-23 08:40:00,36.0,35.8,30.30,SW,230,0.0,1.0,99,0.00,,,0.01,meteobridge,2017-02-23 16:40:00,
2017-02-23 08:45:00,36.1,35.6,30.30,SSE,156,2.0,2.0,98,0.00,,,0.01,meteobridge,2017-02-23 16:45:00,
2017-02-23 08:50:00,36.1,36.0,30.30,SSW,195,0.0,2.0,99,0.00,,,0.01,meteobridge,2017-02-23 16:50:00,
2017-02-23 08:55:00,36.1,35.6,30.30,South,178,2.0,4.0,98,0.00,,,0.01,meteobridge,2017-02-23 16:55:00,
2017-02-23 09:00:00,36.1,35.6,30.30,SSW,195,0.0,5.0,98,0.00,,,0.01,meteobridge,2017-02-23 17:00:00,
2017-02-23 09:05:00,36.0,35.4,30.31,WSW,242,2.9,3.0,98,0.00,,,0.01,meteobridge,2017-02-23 17:05:00,
2017-02-23 09:10:00,36.0,35.4,30.31,WSW,240,0.0,1.0,98,0.00,,,0.01,meteobridge,2017-02-23 17:10:00,
2017-02-23 09:15:00,36.1,35.4,30.31,SSW,202,0.9,3.0,97,0.00,,,0.01,meteobridge,2017-02-23 17:15:00,
2017-02-23 09:20:00,36.1,35.4,30.31,SSW,212,2.0,4.0,97,0.00,,,0.01,meteobridge,2017-02-23 17:20:00,
2017-02-23 09:25:00,36.3,35.6,30.31,SSW,198,2.9,4.0,97,0.00,,,0.01,meteobridge,2017-02-23 17:25:00,
2017-02-23 09:30:00,36.5,35.8,30.31,SW,215,2.0,4.0,97,0.00,,,0.01,meteobridge,2017-02-23 17:30:00,
2017-02-23 09:35:00,36.7,36.0,30.31,SW,228,2.0,2.0,97,0.00,,,0.01,meteobridge,2017-02-23 17:35:00,
2017-02-23 09:40:00,36.7,35.6,30.31,SE,145,0.9,3.0,96,0.00,,,0.01,meteobridge,2017-02-23 17:40:00,
2017-02-23 09:45:00,36.7,35.6,30.32,SE,143,2.0,3.0,96,0.00,,,0.01,meteobridge,2017-02-23 17:45:00,
2017-02-23 09:50:00,36.9,35.8,30.32,SSE,161,2.0,3.0,96,0.00,,,0.01,meteobridge,2017-02-23 17:50:00,
2017-02-23 09:55:00,36.9,35.8,30.32,SW,215,2.9,4.0,96,0.00,,,0.01,meteobridge,2017-02-23 17:55:00,
2017-02-23 10:00:00,36.9,35.8,30.32,SSW,192,0.9,2.0,96,0.00,,,0.01,meteobridge,2017-02-23 18:00:00,
2017-02-23 10:06:00,36.9,35.8,30.32,SE,143,6.0,6.0,96,0.00,,,0.01,meteobridge,2017-02-23 18:06:00,
2017-02-23 10:11:00,36.9,35.8,30.32,SSW,204,2.9,3.0,96,0.00,,,0.01,meteobridge,2017-02-23 18:11:00,
2017-02-23 10:16:00,36.9,35.8,30.32,SW,217,2.0,4.0,96,0.00,,,0.01,meteobridge,2017-02-23 18:16:00,
2017-02-23 10:21:00,36.9,35.8,30.32,SW,226,0.9,3.0,96,0.00,,,0.01,meteobridge,2017-02-23 18:21:00,
2017-02-23 10:26:00,37.0,36.0,30.32,SSW,194,2.9,4.0,96,0.00,,,0.01,meteobridge,2017-02-23 18:26:00,
2017-02-23 10:31:00,37.2,36.0,30.32,South,177,2.9,6.0,95,0.00,,,0.01,meteobridge,2017-02-23 18:31:00,
2017-02-23 10:36:00,37.2,35.6,30.32,SSE,157,2.0,5.0,94,0.00,,,0.01,meteobridge,2017-02-23 18:36:00,
2017-02-23 10:41:00,37.6,36.0,30.32,SSW,195,0.9,5.0,94,0.00,,,0.01,meteobridge,2017-02-23 18:41:00,
2017-02-23 10:46:00,37.8,36.0,30.32,SSE,159,0.9,2.0,93,0.00,,,0.01,meteobridge,2017-02-23 18:46:00,
2017-02-23 10:51:00,37.8,36.0,30.32,SE,138,2.9,5.0,93,0.00,,,0.01,meteobridge,2017-02-23 18:51:00,
2017-02-23 10:56:00,37.9,36.1,30.32,SE,137,4.0,6.0,93,0.00,,,0.01,meteobridge,2017-02-23 18:56:00,
2017-02-23 11:01:00,38.1,36.0,30.32,SE,140,2.0,4.0,92,0.00,,,0.01,meteobridge,2017-02-23 19:01:00,
2017-02-23 11:06:00,38.5,36.3,30.32,SSE,153,2.9,6.0,92,0.00,,,0.01,meteobridge,2017-02-23 19:06:00,
2017-02-23 11:11:00,38.5,36.3,30.32,SSW,205,2.0,2.0,92,0.00,,,0.01,meteobridge,2017-02-23 19:11:00,
2017-02-23 11:16:00,38.8,36.7,30.32,SSW,205,2.9,4.0,92,0.00,,,0.01,meteobridge,2017-02-23 19:16:00,
2017-02-23 11:21:00,39.2,36.5,30.32,SE,144,4.0,6.0,90,0.00,,,0.01,meteobridge,2017-02-23 19:21:00,
2017-02-23 11:26:00,39.6,37.2,30.31,SE,144,4.0,6.0,91,0.00,,,0.01,meteobridge,2017-02-23 19:26:00,
2017-02-23 11:31:00,40.5,38.1,30.31,SSE,149,4.9,6.0,91,0.00,,,0.01,meteobridge,2017-02-23 19:31:00,
2017-02-23 11:36:00,40.6,37.0,30.30,SSE,167,4.0,5.0,87,0.00,,,0.01,meteobridge,2017-02-23 19:36:00,
2017-02-23 11:41:00,40.6,37.4,30.31,SW,217,2.9,5.0,88,0.00,,,0.01,meteobridge,2017-02-23 19:41:00,
2017-02-23 11:46:00,40.6,37.4,30.31,SSW,201,4.9,5.0,88,0.00,,,0.01,meteobridge,2017-02-23 19:46:00,
2017-02-23 11:51:00,41.2,38.5,30.30,SSW,207,6.0,6.0,90,0.00,,,0.01,meteobridge,2017-02-23 19:51:00,
2017-02-23 11:56:00,41.2,37.0,30.30,SSW,209,4.0,6.0,85,0.00,,,0.01,meteobridge,2017-02-23 19:56:00,
2017-02-23 12:01:00,41.4,37.2,30.30,SW,222,2.9,5.0,85,0.00,,,0.01,meteobridge,2017-02-23 20:01:00,
2017-02-23 12:06:00,41.4,36.9,30.30,South,190,0.9,6.0,84,0.00,,,0.01,meteobridge,2017-02-23 20:06:00,
2017-02-23 12:11:00,41.5,37.4,30.29,WSW,240,4.9,5.0,85,0.00,,,0.01,meteobridge,2017-02-23 20:11:00,
2017-02-23 12:16:00,41.9,37.0,30.29,SSE,157,2.9,7.0,83,0.00,,,0.01,meteobridge,2017-02-23 20:16:00,
2017-02-23 12:21:00,42.4,37.6,30.29,SSE,157,2.0,5.0,83,0.00,,,0.01,meteobridge,2017-02-23 20:21:00,
2017-02-23 12:26:00,42.8,36.7,30.29,SW,223,2.9,5.0,79,0.00,,,0.01,meteobridge,2017-02-23 20:26:00,
2017-02-23 12:31:00,43.2,38.3,30.29,SSW,192,2.0,7.0,83,0.00,,,0.01,meteobridge,2017-02-23 20:31:00,
2017-02-23 12:36:00,43.2,37.0,30.29,South,191,2.9,4.0,79,0.00,,,0.01,meteobridge,2017-02-23 20:36:00,
2017-02-23 12:41:00,43.3,37.2,30.28,SW,231,2.0,5.0,79,0.00,,,0.01,meteobridge,2017-02-23 20:41:00,
2017-02-23 12:47:00,43.2,36.1,30.28,SW,235,2.0,4.0,76,0.00,,,0.01,meteobridge,2017-02-23 20:47:00,
2017-02-23 12:52:00,43.0,36.7,30.28,NE,35,0.9,3.0,78,0.00,,,0.01,meteobridge,2017-02-23 20:52:00,
2017-02-23 12:57:00,43.0,36.7,30.28,SW,228,4.0,6.0,78,0.00,,,0.01,meteobridge,2017-02-23 20:57:00,
2017-02-23 13:02:00,43.0,36.9,30.28,SW,215,2.0,5.0,79,0.00,,,0.01,meteobridge,2017-02-23 21:02:00,
2017-02-23 13:07:00,43.0,36.3,30.28,West,275,2.0,3.0,77,0.00,,,0.01,meteobridge,2017-02-23 21:07:00,
2017-02-23 13:12:00,43.2,36.5,30.28,West,259,2.9,3.0,77,0.00,,,0.01,meteobridge,2017-02-23 21:12:00,
2017-02-23 13:17:00,43.2,36.7,30.28,WSW,242,4.9,5.0,78,0.00,,,0.01,meteobridge,2017-02-23 21:17:00,
2017-02-23 13:22:00,43.3,36.3,30.28,SSW,212,0.9,5.0,76,0.00,,,0.01,meteobridge,2017-02-23 21:22:00,
2017-02-23 13:27:00,43.3,36.3,30.27,SSW,194,4.0,8.0,76,0.00,,,0.01,meteobridge,2017-02-23 21:27:00,
2017-02-23 13:32:00,44.1,36.7,30.28,SSW,200,2.0,6.0,75,0.00,,,0.01,meteobridge,2017-02-23 21:32:00,
2017-02-23 13:37:00,44.2,36.1,30.27,SE,140,2.0,4.0,73,0.00,,,0.01,meteobridge,2017-02-23 21:37:00,
2017-02-23 13:42:00,44.2,35.1,30.27,WSW,239,0.9,4.0,70,0.00,,,0.01,meteobridge,2017-02-23 21:42:00,
2017-02-23 13:47:00,44.4,36.7,30.27,SSW,193,4.9,7.0,74,0.00,,,0.01,meteobridge,2017-02-23 21:47:00,
2017-02-23 13:52:00,44.4,36.0,30.27,SSW,201,2.0,5.0,72,0.00,,,0.01,meteobridge,2017-02-23 21:52:00,
2017-02-23 13:57:00,44.4,35.2,30.27,SW,228,4.9,7.0,70,0.00,,,0.01,meteobridge,2017-02-23 21:57:00,
2017-02-23 14:02:00,44.4,34.9,30.27,SSW,194,4.9,6.0,69,0.00,,,0.01,meteobridge,2017-02-23 22:02:00,
2017-02-23 14:07:00,44.6,36.9,30.27,SW,232,4.9,7.0,74,0.00,,,0.01,meteobridge,2017-02-23 22:07:00,
2017-02-23 14:12:00,45.1,37.9,30.27,WSW,244,8.1,10.0,76,0.00,,,0.01,meteobridge,2017-02-23 22:12:00,
2017-02-23 14:17:00,45.1,37.4,30.26,West,266,6.9,10.0,74,0.00,,,0.01,meteobridge,2017-02-23 22:17:00,
2017-02-23 14:22:00,45.3,37.2,30.27,WSW,238,8.9,10.0,73,0.00,,,0.01,meteobridge,2017-02-23 22:22:00,
2017-02-23 14:27:00,45.7,36.9,30.26,West,260,10.1,11.0,71,0.00,,,0.01,meteobridge,2017-02-23 22:27:00,
2017-02-23 14:32:00,45.7,36.5,30.27,WSW,238,8.1,9.0,70,0.00,,,0.01,meteobridge,2017-02-23 22:32:00,
2017-02-23 14:37:00,45.1,34.9,30.26,SW,223,4.0,8.0,67,0.00,,,0.01,meteobridge,2017-02-23 22:37:00,
2017-02-23 14:42:00,44.8,35.2,30.26,SW,220,4.9,9.0,69,0.00,,,0.01,meteobridge,2017-02-23 22:42:00,
2017-02-23 14:47:00,44.4,36.7,30.26,SSW,199,4.9,9.0,74,0.00,,,0.01,meteobridge,2017-02-23 22:47:00,
2017-02-23 14:53:00,44.4,37.4,30.26,WSW,254,4.9,8.0,76,0.00,,,0.01,meteobridge,2017-02-23 22:53:00,
2017-02-23 14:58:00,44.2,36.1,30.26,WSW,246,8.1,10.0,73,0.00,,,0.01,meteobridge,2017-02-23 22:58:00,
2017-02-23 15:03:00,44.2,36.1,30.26,SW,226,6.9,8.0,73,0.00,,,0.01,meteobridge,2017-02-23 23:03:00,
2017-02-23 15:08:00,44.1,36.7,30.26,WSW,237,8.9,9.0,75,0.00,,,0.01,meteobridge,2017-02-23 23:08:00,
2017-02-23 15:13:00,43.9,36.5,30.26,WSW,244,4.9,8.0,75,0.00,,,0.01,meteobridge,2017-02-23 23:13:00,
2017-02-23 15:18:00,43.9,35.8,30.26,West,271,4.0,7.0,73,0.00,,,0.01,meteobridge,2017-02-23 23:18:00,
2017-02-23 15:23:00,44.1,35.6,30.26,WSW,253,4.9,8.0,72,0.00,,,0.01,meteobridge,2017-02-23 23:23:00,
2017-02-23 15:28:00,44.2,35.1,30.26,West,266,2.0,7.0,70,0.00,,,0.01,meteobridge,2017-02-23 23:28:00,
2017-02-23 15:33:00,44.4,34.9,30.26,SW,236,4.9,6.0,69,0.00,,,0.01,meteobridge,2017-02-23 23:33:00,
2017-02-23 15:43:00,44.2,35.4,30.25,SW,234,6.0,9.0,71,0.00,,,0.01,meteobridge,2017-02-23 23:43:00,
2017-02-23 15:48:00,44.1,36.7,30.25,WSW,240,4.9,9.0,75,0.00,,,0.01,meteobridge,2017-02-23 23:48:00,
2017-02-23 15:53:00,43.9,37.2,30.25,WSW,238,4.9,10.0,77,0.00,,,0.01,meteobridge,2017-02-23 23:53:00,
2017-02-23 15:58:00,43.9,37.2,30.25,SW,232,4.9,8.0,77,0.00,,,0.01,meteobridge,2017-02-23 23:58:00,
2017-02-23 16:03:00,43.5,36.9,30.25,SSE,166,4.9,5.0,77,0.00,,,0.01,meteobridge,2017-02-24 00:03:00,
2017-02-23 16:08:00,43.5,36.9,30.25,SSW,204,4.0,6.0,77,0.00,,,0.01,meteobridge,2017-02-24 00:08:00,
2017-02-23 16:13:00,43.5,36.9,30.25,SSW,202,2.0,5.0,77,0.00,,,0.01,meteobridge,2017-02-24 00:13:00,